EW2485 Weather Reports


Display with metric or nautical units.
time (UTC)temp
F
wind
direction
speed
MPH
gust
MPH
rain 1hr
in
rain 24hr
in
rain mn
in
humidity
%
barometer
mb
20260902031528 69 331 2.0 4.0 0.00 0.41 0.41 93 1015.5
20260902030046 69 1 2.0 5.0 0.00 0.41 0.41 94 1015.5
20260902024508 69 11 2.0 5.0 0.00 0.41 0.41 93 1015.7
20260902023051 70 295 2.0 4.0 0.00 0.41 0.41 93 1015.7
20260902021535 70 46 1.0 4.0 0.00 0.41 0.41 93 1015.5
20260902020039 70 314 1.0 4.0 0.00 0.42 0.41 93 1015.5
20260902014542 70 35 2.0 4.0 0.00 0.42 0.41 93 1015.4
20260902013009 70 1 2.0 4.0 0.00 0.42 0.41 93 1015.4
20260902011533 70 39 2.0 4.0 0.00 0.42 0.41 92 1015.3
20260902010058 71 39 1.0 3.0 0.00 0.48 0.41 92 1015.1
20260902004517 71 89 2.0 3.0 0.00 0.48 0.41 91 1014.7
20260902003044 72 223 1.0 4.0 0.00 0.48 0.41 91 1014.5
20260902001506 72 15 2.0 3.0 0.00 0.48 0.41 90 1014.4
20260902000031 73 1 2.0 3.0 0.00 0.51 0.41 90 1014.1
20260901234552 74 1 1.0 4.0 0.00 0.51 0.41 89 1014.1
20260901233040 75 178 0.0 3.0 0.00 0.51 0.41 87 1014.2
20260901231522 76 28 1.0 5.0 0.00 0.51 0.41 87 1014.1
20260901230058 77 82 2.0 4.0 0.00 0.54 0.41 86 1014.1
20260901224524 77 314 1.0 6.0 0.00 0.54 0.41 85 1014.2
20260901223101 78 353 2.0 9.0 0.00 0.54 0.41 84 1014.1
20260901221559 79 326 2.0 7.0 0.00 0.54 0.41 83 1014.1
20260901220039 79 28 4.0 8.0 0.00 0.65 0.41 83 1014.2
20260901214541 79 1 3.0 10.0 0.00 0.65 0.41 83 1014.1
20260901213058 80 28 7.0 14.0 0.00 0.65 0.41 82 1014.1
20260901211517 80 16 6.0 12.0 0.00 0.65 0.41 83 1014.0
20260901210046 80 334 3.0 10.0 0.00 0.70 0.41 83 1014.0
20260901204558 80 20 3.0 9.0 0.00 0.70 0.41 83 1013.9
20260901203040 79 1 6.0 13.0 0.00 0.70 0.41 82 1014.0
20260901201545 79 349 6.0 12.0 0.00 0.70 0.41 85 1014.0
20260901200020 78 30 5.0 9.0 0.00 0.75 0.41 85 1014.2
20260901194603 77 347 4.0 13.0 0.00 0.75 0.41 86 1014.3
20260901193042 77 1 2.0 6.0 0.00 0.75 0.41 88 1014.3
20260901191513 77 335 3.0 8.0 0.00 0.75 0.41 88 1014.4
20260901190056 77 28 3.0 8.0 0.00 0.79 0.41 88 1014.4
20260901184600 77 269 2.0 11.0 0.00 0.79 0.41 88 1014.3
20260901183028 76 219 2.0 7.0 0.00 0.79 0.41 89 1014.0
20260901181543 76 269 2.0 7.0 0.00 0.79 0.41 89 1014.0
20260901180005 76 135 2.0 8.0 0.00 0.79 0.41 90 1013.9
20260901174535 75 269 3.0 8.0 0.00 0.79 0.41 92 1013.8
20260901173054 75 255 3.0 9.0 0.00 0.79 0.41 95 1013.8
20260901171527 75 255 4.0 9.0 0.00 0.79 0.41 97 1013.7
20260901170101 74 152 2.0 6.0 0.00 0.85 0.41 97 1014.0
20260901170003 74 89 2.0 6.0 0.00 0.85 0.41 97 1014.0
20260901164546 73 193 2.0 8.0 0.00 0.85 0.41 97 1014.0
20260901163014 72 188 3.0 8.0 0.00 0.85 0.41 96 1014.1
20260901161534 72 234 2.0 3.0 0.00 0.85 0.41 96 1014.3
20260901160053 71 197 1.0 4.0 0.00 0.93 0.41 96 1014.3
20260901154524 71 193 1.0 3.0 0.00 0.93 0.41 96 1014.2
20260901153037 71 223 1.0 4.0 0.00 0.93 0.41 96 1014.2
20260901151553 71 250 1.0 3.0 0.00 0.93 0.41 96 1014.3
20260901150026 71 178 1.0 4.0 0.00 0.93 0.41 96 1014.3
20260901143026 71 157 1.0 3.0 0.02 0.93 0.41 97 1014.2
20260901141550 70 190 1.0 5.0 0.02 0.93 0.41 96 1014.0
20260901140024 70 185 2.0 4.0 0.02 0.93 0.41 96 1014.0
20260901134510 70 178 0.0 2.0 0.01 0.91 0.39 96 1014.2
20260901133052 70 178 0.0 2.0 0.01 0.91 0.39 96 1014.4
20260901131521 69 178 1.0 4.0 0.01 0.91 0.39 96 1014.5
20260901130037 69 161 0.0 3.0 0.01 0.91 0.39 96 1014.6
20260901124558 69 165 0.0 3.0 0.00 0.90 0.38 96 1014.7
20260901123029 69 56 0.0 2.0 0.01 0.90 0.38 96 1014.5
20260901121554 68 117 0.0 3.0 0.02 0.90 0.38 96 1014.7
20260901120014 68 63 0.0 5.0 0.14 0.90 0.38 96 1014.8
20260901114535 67 178 1.0 3.0 0.23 0.90 0.38 96 1015.0
20260901113058 67 190 2.0 4.0 0.23 0.89 0.37 96 1015.0
20260901111518 67 240 2.0 5.0 0.26 0.88 0.36 96 1014.9
20260901110100 67 178 2.0 8.0 0.15 0.77 0.26 96 1015.1
20260901110002 67 170 2.0 8.0 0.14 0.75 0.25 96 1015.1
20260901104543 66 350 2.0 3.0 0.09 0.67 0.15 95 1014.6
20260901103010 66 349 2.0 4.0 0.08 0.66 0.14 96 1014.5
20260901101549 66 197 2.0 3.0 0.04 0.62 0.10 96 1014.6
20260901100059 66 340 1.0 2.0 0.04 0.62 0.10 96 1014.6
20260901100001 66 1 0.0 3.0 0.03 0.61 0.10 96 1014.6
20260901094523 66 314 0.0 2.0 0.00 0.57 0.06 95 1014.4
20260901093049 66 1 1.0 3.0 0.00 0.57 0.06 96 1014.6
20260901091602 66 269 1.0 3.0 0.00 0.57 0.06 96 1014.6
20260901090024 65 338 2.0 4.0 0.00 0.57 0.06 96 1014.6
20260901084539 65 269 1.0 3.0 0.01 0.57 0.06 95 1014.7
20260901083057 65 1 1.0 2.0 0.05 0.57 0.06 95 1015.0
20260901081521 65 56 1.0 4.0 0.05 0.57 0.06 95 1015.3
20260901080053 65 46 1.0 3.0 0.06 0.57 0.06 95 1015.4
20260901074548 65 269 1.0 3.0 0.05 0.56 0.05 95 1015.6
20260901073011 65 39 1.0 3.0 0.01 0.53 0.01 95 1015.8
20260901071549 65 108 1.0 3.0 0.01 0.53 0.01 95 1015.8
20260901064552 65 20 1.0 2.0 0.00 0.52 0.00 95 1015.8
20260901063011 65 1 1.0 3.0 0.00 0.52 0.00 95 1015.9
20260901061535 65 28 2.0 4.0 0.00 0.52 0.00 95 1016.0
20260901060056 64 295 1.0 2.0 0.00 0.52 0.00 95 1015.9
20260901054527 64 28 2.0 4.0 0.00 0.52 0.00 95 1016.2
20260901053051 64 28 1.0 3.0 0.00 0.52 0.00 94 1016.3
20260901051513 65 35 1.0 2.0 0.00 0.52 0.00 94 1016.5
20260901050052 65 1 2.0 3.0 0.00 0.52 0.00 94 1016.4
20260901044536 65 1 2.0 3.0 0.00 0.52 0.00 94 1016.4
20260901043006 65 1 2.0 3.0 0.00 0.52 0.00 94 1016.6
20260901041528 66 56 1.0 2.0 0.00 0.52 0.00 94 1016.6
20260901040050 66 35 1.0 3.0 0.00 0.52 0.52 94 1016.6
20260901034606 66 314 2.0 3.0 0.00 0.52 0.52 94 1016.7
20260901034502 66 1 1.0 3.0 0.00 0.52 0.52 94 1016.6
20260901033102 66 1 0.0 2.0 0.00 0.52 0.52 94 1016.7